This is the latest recevied weather packets stored in our database for station/object KY0TEQ-13. If no packets are shown the sender has not sent any weather packets the latest 10 day(s).
| Time | Temp. | Humidity | Pressure | Rain* | Wind** | Luminosity | Snow |
|---|---|---|---|---|---|---|---|
| 1777482193 | 13.33° C | 22% | 1303 hPa | 0 mm | - | 675 W/m² | - |
| 1777481890 | 13.89° C | 21% | 1303 hPa | 0 mm | - | 665 W/m² | - |
| 1777481588 | 12.78° C | 20% | 1303.3 hPa | 0 mm | - | 656 W/m² | - |
| 1777481285 | 12.78° C | 22% | 1303.4 hPa | 0 mm | - | 645 W/m² | - |
| 1777480981 | 12.78° C | 22% | 1303.3 hPa | 0 mm | - | 633 W/m² | - |
| 1777480678 | 12.78° C | 23% | 1303.3 hPa | 0 mm | - | 623 W/m² | - |
| 1777480375 | 12.22° C | 24% | 1303.5 hPa | 0 mm | - | 610 W/m² | - |
| 1777480070 | 12.22° C | 22% | 1303.5 hPa | 0 mm | - | 601 W/m² | - |
| 1777479767 | 12.22° C | 25% | 1303.3 hPa | 0 mm | - | 586 W/m² | - |
| 1777479465 | 12.22° C | 22% | 1303.4 hPa | 0 mm | - | 575 W/m² | - |
| 1777479161 | 11.11° C | 22% | 1303.7 hPa | 0 mm | - | 563 W/m² | - |
| 1777478858 | 11.11° C | 22% | 1303.8 hPa | 0 mm | - | 550 W/m² | - |
| 1777478554 | 11.11° C | 23% | 1303.7 hPa | 0 mm | - | 535 W/m² | - |
| 1777478252 | 11.11° C | 24% | 1303.5 hPa | 0 mm | - | 522 W/m² | - |
| 1777477947 | 10.56° C | 24% | 1303.7 hPa | 0 mm | - | 508 W/m² | - |
| 1777477643 | 10.56° C | 27% | 1303.8 hPa | 0 mm | - | 493 W/m² | - |
| 1777477340 | 10.56° C | 26% | 1303.7 hPa | 0 mm | - | 477 W/m² | - |
| 1777477037 | 10° C | 26% | 1303.4 hPa | 0 mm | - | 463 W/m² | - |
| 1777476734 | 10° C | 29% | 1303.7 hPa | 0 mm | - | 448 W/m² | - |
| 1777476430 | 9.44° C | 31% | 1303.7 hPa | 0 mm | - | 435 W/m² | - |
| 1777476127 | 9.44° C | 35% | 1303.5 hPa | 0 mm | - | 418 W/m² | - |
| 1777475823 | 8.89° C | 36% | 1303.5 hPa | 0 mm | - | 397 W/m² | - |
| 1777475519 | 8.89° C | 37% | 1303.5 hPa | 0 mm | - | 389 W/m² | - |
| 1777475215 | 8.89° C | 37% | 1303.7 hPa | 0 mm | - | 372 W/m² | - |
| 1777474911 | 8.89° C | 37% | 1303.7 hPa | 0 mm | - | 279 W/m² | - |
* Rain latest hour (hover to see other rain measurements)
** Current wind speed in m/s (hover to see current wind gust speed)